This is the latest recevied weather packets stored in our database for station/object KB4MOX. If no packets are shown the sender has not sent any weather packets the latest 10 day(s).
| Time | Temp. | Humidity | Pressure | Rain* | Wind** | Luminosity | Snow |
|---|---|---|---|---|---|---|---|
| 1777597737 | 17.78° C | 82% | 1011.2 hPa | 0 mm | - | 0 W/m² | - |
| 1777597433 | 17.78° C | 82% | 1011.1 hPa | 0 mm | - | 0 W/m² | - |
| 1777597128 | 17.78° C | 82% | 1011.2 hPa | 0 mm | - | 0 W/m² | - |
| 1777596825 | 18.33° C | 83% | 1011.1 hPa | 0 mm | - | 0 W/m² | - |
| 1777596520 | 18.33° C | 82% | 1010.9 hPa | 0 mm | - | 0 W/m² | - |
| 1777596218 | 18.33° C | 82% | 1010.7 hPa | 0 mm | - | 0 W/m² | - |
| 1777595915 | 18.89° C | 81% | 1010.7 hPa | 0 mm | - | 0 W/m² | - |
| 1777595610 | 18.89° C | 80% | 1010.5 hPa | 0 mm | - | 0 W/m² | - |
| 1777595306 | 19.44° C | 79% | 1010.4 hPa | 0 mm | - | 0 W/m² | - |
| 1777595002 | 19.44° C | 78% | 1010.2 hPa | 0 mm | - | 1 W/m² | - |
| 1777594699 | 20° C | 77% | 1010.4 hPa | 0 mm | - | 1 W/m² | - |
| 1777594396 | 20° C | 76% | 1010.3 hPa | 0 mm | - | 2 W/m² | - |
| 1777594091 | 20.56° C | 74% | 1010.2 hPa | 0 mm | - | 5 W/m² | - |
| 1777593787 | 20.56° C | 73% | 1010.2 hPa | 0 mm | - | 7 W/m² | - |
| 1777593484 | 21.11° C | 73% | 1010.2 hPa | 0 mm | - | 11 W/m² | - |
| 1777593182 | 21.11° C | 71% | 1010.1 hPa | 0 mm | - | 14 W/m² | - |
| 1777592881 | 21.67° C | 70% | 1010.2 hPa | 0 mm | - | 15 W/m² | - |
| 1777592578 | 21.67° C | 67% | 1010 hPa | 0 mm | - | 19 W/m² | - |
| 1777592274 | 22.22° C | 65% | 1010.1 hPa | 0 mm | - | 26 W/m² | - |
| 1777591970 | 22.78° C | 63% | 1010 hPa | 0 mm | - | 33 W/m² | - |
| 1777591666 | 22.78° C | 62% | 1009.9 hPa | 0 mm | - | 34 W/m² | - |
| 1777591363 | 23.33° C | 61% | 1009.8 hPa | 0 mm | - | 38 W/m² | - |
| 1777591058 | 23.33° C | 59% | 1009.9 hPa | 0 mm | - | 47 W/m² | - |
| 1777590754 | 23.89° C | 58% | 1009.8 hPa | 0 mm | - | 72 W/m² | - |
| 1777590450 | 23.33° C | 58% | 1009.9 hPa | 0 mm | - | 106 W/m² | - |
* Rain latest hour (hover to see other rain measurements)
** Current wind speed in m/s (hover to see current wind gust speed)